MZT1 ZYTL-ZGGG

Flight info

Callsign MZT1
Flight time 3h 2m
Altitude 38100
Route KAR09D KARPI W5 ATLED/K0843S1220 W5 TAO/K0845S1190 DCT URBAD W172 LATUX W108 MATNU/K0846S1220 W115 PINOT W11 PUD A599 NXD W131 AKDIM A470 DUBGO W134 ELNEX A599 PLT W19 OLPAB OLPAB9
Aircraft CL60/M-SADE3FGHIJ3J4J7P2RWXY/HB1D1

Departure

Time 2026-05-06 04:47
Airport Dalian Zhoushuizi International Airport (ZYTL)

Arrival

Time 2026-05-06 07:50
Airport Guangzhou Baiyun International Airport (ZGGG)
Time Latitude Longitude Altitude Speed Heading
2026-05-06 04:39 38.96426 121.52274 113 ft 0 kts 276°
2026-05-06 04:42 38.96426 121.52281 113 ft 0 kts 276°
2026-05-06 04:42 38.96430 121.52268 112 ft 5 kts 304°
2026-05-06 04:43 38.96484 121.52204 113 ft 15 kts 320°
2026-05-06 04:43 38.96507 121.52097 113 ft 10 kts 270°
2026-05-06 04:43 38.96517 121.51978 113 ft 11 kts 290°
2026-05-06 04:43 38.96555 121.51953 113 ft 8 kts
2026-05-06 04:44 38.96612 121.51961 113 ft 0 kts
2026-05-06 04:45 38.96654 121.51967 113 ft 10 kts
2026-05-06 04:45 38.96710 121.52058 113 ft 17 kts 95°
2026-05-06 04:46 38.96699 121.52142 113 ft 6 kts 96°
2026-05-06 04:46 38.96699 121.52143 113 ft 0 kts 97°
2026-05-06 04:46 38.96690 121.52261 113 ft 52 kts 96°
2026-05-06 04:47 38.96619 121.53181 113 ft 145 kts 96°
2026-05-06 04:47 38.96494 121.54666 418 ft 188 kts 97°
2026-05-06 04:47 38.96394 121.56321 1557 ft 187 kts 98°
2026-05-06 04:47 38.96442 121.57903 2600 ft 181 kts 90°
2026-05-06 04:48 38.96720 121.59495 2484 ft 193 kts 75°
2026-05-06 04:48 38.97439 121.61211 2203 ft 232 kts 53°
2026-05-06 04:48 38.98672 121.62511 3210 ft 234 kts 23°
2026-05-06 04:48 39.00195 121.62837 4424 ft 229 kts 342°
2026-05-06 04:49 39.01429 121.61698 5271 ft 230 kts 287°
2026-05-06 04:49 39.01115 121.59820 5613 ft 240 kts 214°
2026-05-06 04:49 38.99577 121.60110 5432 ft 259 kts 128°
2026-05-06 04:49 38.99726 121.62361 4517 ft 290 kts 41°
2026-05-06 04:50 39.01505 121.62584 4077 ft 260 kts 315°
2026-05-06 04:50 39.01843 121.60717 3756 ft 222 kts 232°
2026-05-06 04:50 39.00426 121.60337 3031 ft 239 kts 163°
2026-05-06 04:50 38.98968 121.60609 3447 ft 210 kts 192°
2026-05-06 04:51 38.97547 121.59897 3687 ft 217 kts 208°
2026-05-06 04:51 38.96468 121.59203 5538 ft 165 kts 210°
2026-05-06 04:51 38.95490 121.58588 6507 ft 176 kts 207°
2026-05-06 04:51 38.94172 121.57919 6812 ft 218 kts 199°
2026-05-06 04:52 38.92725 121.57213 7594 ft 233 kts 214°
2026-05-06 04:52 38.91394 121.55943 8170 ft 247 kts 220°
2026-05-06 04:52 38.90047 121.54575 8777 ft 248 kts 220°
2026-05-06 04:52 38.88680 121.53201 9384 ft 249 kts 220°
2026-05-06 04:53 38.87317 121.51842 9999 ft 251 kts 220°
2026-05-06 04:53 38.85916 121.50461 10616 ft 255 kts 220°
2026-05-06 04:53 38.84512 121.49091 11184 ft 258 kts 220°
2026-05-06 04:53 38.83064 121.47694 11815 ft 260 kts 220°
2026-05-06 04:54 38.81618 121.46324 12481 ft 263 kts 219°
2026-05-06 04:54 38.80112 121.44940 13154 ft 265 kts 219°
2026-05-06 04:54 38.78626 121.43579 13793 ft 267 kts 219°
2026-05-06 04:54 38.77106 121.42188 14419 ft 274 kts 219°
2026-05-06 04:55 38.75512 121.40729 15118 ft 289 kts 220°
2026-05-06 04:55 38.73853 121.39214 15923 ft 299 kts 220°
2026-05-06 04:55 38.72146 121.37658 16751 ft 305 kts 220°
2026-05-06 04:55 38.70432 121.36099 17579 ft 309 kts 220°
2026-05-06 04:56 38.68666 121.34495 18460 ft 312 kts 219°
2026-05-06 04:56 38.66907 121.32900 19315 ft 313 kts 220°
2026-05-06 04:56 38.65148 121.31306 20139 ft 313 kts 220°
2026-05-06 04:56 38.63368 121.29695 20971 ft 313 kts 221°
2026-05-06 04:57 38.61612 121.28108 21788 ft 311 kts 220°
2026-05-06 04:57 38.59870 121.26533 22583 ft 309 kts 222°
2026-05-06 04:57 38.58114 121.24948 23359 ft 308 kts 222°
2026-05-06 04:57 38.56366 121.23371 24138 ft 307 kts 222°
2026-05-06 04:58 38.54661 121.21782 24912 ft 301 kts 228°
2026-05-06 04:58 38.53320 121.19823 25651 ft 292 kts 240°
2026-05-06 04:58 38.52109 121.17732 26394 ft 290 kts 239°
2026-05-06 04:58 38.50902 121.15668 27092 ft 289 kts 240°
2026-05-06 04:59 38.49693 121.13602 27777 ft 289 kts 240°
2026-05-06 04:59 38.48484 121.11536 28437 ft 289 kts 240°
2026-05-06 04:59 38.47268 121.09460 29091 ft 289 kts 240°
2026-05-06 04:59 38.46059 121.07400 29727 ft 288 kts 241°
2026-05-06 05:00 38.45423 121.06317 30044 ft 287 kts 242°
2026-05-06 05:00 38.44527 121.04793 30491 ft 287 kts 241°
2026-05-06 05:00 38.43339 121.02772 31083 ft 286 kts 241°
2026-05-06 05:00 38.42142 121.00739 31678 ft 284 kts 242°
2026-05-06 05:01 38.40973 120.98753 32227 ft 282 kts 242°
2026-05-06 05:01 38.39792 120.96750 32761 ft 281 kts 242°
2026-05-06 05:01 38.38629 120.94776 33271 ft 279 kts 242°
2026-05-06 05:01 38.37463 120.92801 33809 ft 277 kts 243°
2026-05-06 05:02 38.36321 120.90868 34344 ft 275 kts 243°
2026-05-06 05:02 38.35162 120.88905 34883 ft 273 kts 243°
2026-05-06 05:02 38.34034 120.86997 35367 ft 271 kts 243°
2026-05-06 05:02 38.32904 120.85088 35830 ft 269 kts 243°
2026-05-06 05:03 38.31787 120.83201 36256 ft 267 kts 244°
2026-05-06 05:03 38.30675 120.81323 36645 ft 266 kts 244°
2026-05-06 05:03 38.29567 120.79452 37027 ft 265 kts 244°
2026-05-06 05:03 38.28462 120.77587 37397 ft 264 kts 244°
2026-05-06 05:04 38.27360 120.75729 37740 ft 263 kts 245°
2026-05-06 05:04 38.26242 120.73868 37914 ft 269 kts 241°
2026-05-06 05:04 38.24905 120.72100 37907 ft 287 kts 233°
2026-05-06 05:04 38.23216 120.70597 37924 ft 309 kts 222°
2026-05-06 05:05 38.21251 120.69336 37915 ft 321 kts 220°
2026-05-06 05:05 38.17135 120.66773 37899 ft 337 kts 219°
2026-05-06 05:06 38.12830 120.64096 37906 ft 352 kts 218°
2026-05-06 05:06 38.08352 120.61316 37910 ft 366 kts 218°
2026-05-06 05:07 38.03632 120.58514 37906 ft 386 kts 212°
2026-05-06 05:07 38.00985 120.57478 37924 ft 404 kts 204°
2026-05-06 05:07 37.98140 120.56937 37904 ft 422 kts 195°
2026-05-06 05:08 37.92182 120.56477 37888 ft 436 kts 194°
2026-05-06 05:08 37.86060 120.56014 37917 ft 446 kts 194°
2026-05-06 05:09 37.79789 120.55541 37906 ft 455 kts 194°
2026-05-06 05:09 37.73416 120.55063 37900 ft 463 kts 194°
2026-05-06 05:10 37.66927 120.54578 37923 ft 470 kts 193°
2026-05-06 05:10 37.60408 120.53744 37958 ft 470 kts 197°
2026-05-06 05:11 37.53862 120.52755 37981 ft 476 kts 196°
2026-05-06 05:11 37.47249 120.51762 37996 ft 481 kts 196°
2026-05-06 05:12 37.40554 120.50761 37980 ft 483 kts 196°
2026-05-06 05:12 37.33890 120.49770 37959 ft 482 kts 196°
2026-05-06 05:13 37.27202 120.48776 37948 ft 483 kts 196°
2026-05-06 05:13 37.20533 120.47785 37940 ft 483 kts 196°
2026-05-06 05:14 37.13843 120.46795 37956 ft 483 kts 196°
2026-05-06 05:14 37.07163 120.45807 37950 ft 483 kts 196°
2026-05-06 05:15 37.00459 120.44817 37948 ft 484 kts 196°
2026-05-06 05:15 36.93790 120.43835 37950 ft 484 kts 196°
2026-05-06 05:16 36.87100 120.42851 37955 ft 484 kts 196°
2026-05-06 05:16 36.80410 120.41868 37946 ft 485 kts 196°
2026-05-06 05:17 36.73719 120.40887 37943 ft 486 kts 195°
2026-05-06 05:17 36.66991 120.39902 37954 ft 486 kts 196°
2026-05-06 05:18 36.60305 120.38926 37952 ft 486 kts 196°
2026-05-06 05:18 36.53556 120.37952 37966 ft 487 kts 194°
2026-05-06 05:19 36.46669 120.37604 37958 ft 493 kts 190°
2026-05-06 05:19 36.39784 120.37363 37970 ft 494 kts 190°
2026-05-06 05:20 36.32891 120.37554 37966 ft 505 kts 181°
2026-05-06 05:20 36.25935 120.39439 37969 ft 518 kts 168°
2026-05-06 05:21 36.19300 120.43129 37966 ft 527 kts 158°
2026-05-06 05:21 36.12633 120.46702 37985 ft 519 kts 169°
2026-05-06 05:22 36.05653 120.48416 37980 ft 506 kts 182°
2026-05-06 05:22 35.98627 120.49122 37987 ft 510 kts 178°
2026-05-06 05:23 35.91685 120.51440 37987 ft 523 kts 164°
2026-05-06 05:23 35.81662 120.56893 37989 ft 526 kts 161°
2026-05-06 05:24 35.74976 120.60551 37998 ft 526 kts 161°
2026-05-06 05:24 35.68415 120.64692 37998 ft 531 kts 155°
2026-05-06 05:25 35.61968 120.69070 38000 ft 532 kts 155°
2026-05-06 05:25 35.55488 120.73457 38007 ft 532 kts 155°
2026-05-06 05:26 35.48991 120.77824 38013 ft 531 kts 156°
2026-05-06 05:26 35.42239 120.81368 38000 ft 527 kts 162°
2026-05-06 05:27 35.35408 120.84744 38013 ft 527 kts 162°
2026-05-06 05:27 35.28641 120.88085 38010 ft 527 kts 162°
2026-05-06 05:28 35.21842 120.91438 38002 ft 527 kts 163°
2026-05-06 05:28 35.15033 120.94792 38006 ft 526 kts 162°
2026-05-06 05:29 35.08215 120.98179 38002 ft 527 kts 162°
2026-05-06 05:29 35.01432 121.01545 38013 ft 528 kts 162°
2026-05-06 05:30 34.94609 121.04926 38005 ft 529 kts 162°
2026-05-06 05:30 34.87788 121.08298 38020 ft 529 kts 162°
2026-05-06 05:31 34.80994 121.11653 38016 ft 528 kts 161°
2026-05-06 05:31 34.74187 121.15009 38023 ft 527 kts 161°
2026-05-06 05:32 34.67377 121.18359 38027 ft 526 kts 161°
2026-05-06 05:32 34.60584 121.21695 38024 ft 527 kts 161°
2026-05-06 05:33 34.53824 121.25009 38033 ft 526 kts 161°
2026-05-06 05:33 34.47039 121.28329 38035 ft 525 kts 161°
2026-05-06 05:34 34.40268 121.31638 38042 ft 525 kts 161°
2026-05-06 05:34 34.33462 121.34957 38042 ft 525 kts 161°
2026-05-06 05:35 34.26707 121.38246 38044 ft 524 kts 161°
2026-05-06 05:35 34.19943 121.41534 38053 ft 523 kts 161°
2026-05-06 05:36 34.13182 121.44813 38051 ft 523 kts 161°
2026-05-06 05:36 34.06449 121.48074 38061 ft 522 kts 161°
2026-05-06 05:37 33.99725 121.51325 38057 ft 522 kts 160°
2026-05-06 05:37 33.92945 121.54598 38056 ft 522 kts 161°
2026-05-06 05:38 33.86240 121.57828 38063 ft 521 kts 160°
2026-05-06 05:38 33.79501 121.61070 38066 ft 521 kts 160°
2026-05-06 05:39 33.72751 121.64312 38070 ft 521 kts 160°
2026-05-06 05:39 33.66018 121.67596 38069 ft 520 kts 160°
2026-05-06 05:40 33.59345 121.70861 38071 ft 519 kts 160°
2026-05-06 05:40 33.52636 121.74140 38076 ft 519 kts 160°
2026-05-06 05:41 33.45970 121.77396 38074 ft 519 kts 160°
2026-05-06 05:41 33.39252 121.80673 38077 ft 519 kts 160°
2026-05-06 05:42 33.32567 121.83927 38072 ft 519 kts 160°
2026-05-06 05:42 33.25886 121.87174 38076 ft 519 kts 160°
2026-05-06 05:43 33.19179 121.90428 38076 ft 518 kts 160°
2026-05-06 05:43 33.12516 121.93655 38079 ft 518 kts 160°
2026-05-06 05:44 33.05835 121.96886 38081 ft 518 kts 160°
2026-05-06 05:44 32.99130 122.00123 38087 ft 518 kts 160°
2026-05-06 05:45 32.92464 122.03336 38092 ft 517 kts 160°
2026-05-06 05:45 32.85824 122.06531 38088 ft 516 kts 160°
2026-05-06 05:46 32.79133 122.09745 38092 ft 515 kts 160°
2026-05-06 05:46 32.72497 122.12928 38091 ft 515 kts 160°
2026-05-06 05:47 32.65864 122.16104 38093 ft 515 kts 160°
2026-05-06 05:47 32.59211 122.19285 38095 ft 515 kts 160°
2026-05-06 05:48 32.52604 122.22438 38095 ft 514 kts 159°
2026-05-06 05:48 32.45937 122.25615 38095 ft 514 kts 159°
2026-05-06 05:49 32.39302 122.28771 38095 ft 514 kts 159°
2026-05-06 05:49 32.32661 122.31926 38098 ft 514 kts 159°
2026-05-06 05:50 32.26038 122.35067 38095 ft 513 kts 159°
2026-05-06 05:50 32.19423 122.38200 38101 ft 512 kts 159°
2026-05-06 05:51 32.12812 122.41325 38099 ft 512 kts 159°
2026-05-06 05:51 32.06215 122.44439 38099 ft 511 kts 159°
2026-05-06 05:52 31.99594 122.47559 38098 ft 511 kts 159°
2026-05-06 05:52 31.92983 122.50670 38103 ft 511 kts 159°
2026-05-06 05:53 31.86386 122.53770 38104 ft 511 kts 159°
2026-05-06 05:53 31.79729 122.56622 38106 ft 510 kts 166°
2026-05-06 05:54 31.72720 122.57969 38103 ft 507 kts 179°
2026-05-06 05:54 31.65705 122.57551 38101 ft 503 kts 192°
2026-05-06 05:55 31.58996 122.55437 38105 ft 497 kts 204°
2026-05-06 05:55 31.52905 122.51788 38101 ft 490 kts 217°
2026-05-06 05:56 31.47627 122.46861 38105 ft 483 kts 229°
2026-05-06 05:56 31.43459 122.40779 38101 ft 473 kts 242°
2026-05-06 05:57 31.40450 122.34024 38094 ft 469 kts 249°
2026-05-06 05:57 31.37594 122.27143 38095 ft 470 kts 248°
2026-05-06 05:58 31.34756 122.20323 38095 ft 470 kts 249°
2026-05-06 05:58 31.31883 122.13432 38094 ft 470 kts 249°
2026-05-06 05:59 31.29024 122.06585 38094 ft 469 kts 249°
2026-05-06 05:59 31.26167 121.99758 38097 ft 469 kts 249°
2026-05-06 06:00 31.23297 121.92913 38093 ft 468 kts 249°
2026-05-06 06:00 31.20446 121.86127 38096 ft 467 kts 249°
2026-05-06 06:01 31.17776 121.79224 38089 ft 462 kts 256°
2026-05-06 06:01 31.16479 121.72022 38080 ft 455 kts 267°
2026-05-06 06:02 31.15691 121.64710 38083 ft 455 kts 267°
2026-05-06 06:02 31.14894 121.57400 38084 ft 454 kts 268°
2026-05-06 06:03 31.14093 121.50095 38087 ft 453 kts 267°
2026-05-06 06:03 31.13292 121.42819 38078 ft 452 kts 268°
2026-05-06 06:04 31.12478 121.35553 38068 ft 451 kts 266°
2026-05-06 06:04 31.10872 121.28459 38070 ft 457 kts 258°
2026-05-06 06:05 31.09010 121.21344 38059 ft 457 kts 258°
2026-05-06 06:05 31.07169 121.14294 38057 ft 456 kts 258°
2026-05-06 06:06 31.05439 121.07217 38055 ft 455 kts 259°
2026-05-06 06:06 31.03712 121.00146 38049 ft 454 kts 259°
2026-05-06 06:07 31.01977 120.93057 38045 ft 453 kts 259°
2026-05-06 06:07 31.00242 120.85991 38038 ft 453 kts 259°
2026-05-06 06:08 30.98513 120.78964 38041 ft 453 kts 259°
2026-05-06 06:08 30.96785 120.71935 38030 ft 452 kts 259°
2026-05-06 06:09 30.95065 120.64914 38037 ft 452 kts 259°
2026-05-06 06:09 30.93340 120.57889 38032 ft 451 kts 259°
2026-05-06 06:10 30.91471 120.50935 38026 ft 454 kts 253°
2026-05-06 06:10 30.88458 120.44388 38024 ft 463 kts 241°
2026-05-06 06:11 30.84170 120.38721 38027 ft 473 kts 228°
2026-05-06 06:11 30.78892 120.34109 38022 ft 479 kts 221°
2026-05-06 06:12 30.73452 120.29636 38021 ft 478 kts 221°
2026-05-06 06:12 30.68010 120.25167 38024 ft 478 kts 221°
2026-05-06 06:13 30.62571 120.20706 38021 ft 478 kts 221°
2026-05-06 06:13 30.57169 120.16282 38024 ft 477 kts 221°
2026-05-06 06:14 30.51752 120.11852 38021 ft 476 kts 221°
2026-05-06 06:14 30.46354 120.07444 38022 ft 475 kts 221°
2026-05-06 06:15 30.40798 120.03275 38020 ft 479 kts 216°
2026-05-06 06:15 30.34997 119.99423 38019 ft 479 kts 216°
2026-05-06 06:16 30.29215 119.95580 38019 ft 478 kts 216°
2026-05-06 06:16 30.23478 119.91772 38024 ft 477 kts 216°
2026-05-06 06:17 30.17722 119.87954 38025 ft 477 kts 216°
2026-05-06 06:17 30.11961 119.84135 38032 ft 476 kts 216°
2026-05-06 06:18 30.06217 119.80334 38032 ft 476 kts 216°
2026-05-06 06:18 30.00512 119.76514 38035 ft 475 kts 217°
2026-05-06 06:19 29.94781 119.72661 38053 ft 475 kts 217°
2026-05-06 06:19 29.89092 119.68842 38073 ft 475 kts 217°
2026-05-06 06:20 29.83459 119.64887 38084 ft 471 kts 220°
2026-05-06 06:20 29.78034 119.60624 38084 ft 471 kts 221°
2026-05-06 06:21 29.72645 119.56403 38084 ft 471 kts 220°
2026-05-06 06:21 29.67219 119.52160 38080 ft 470 kts 221°
2026-05-06 06:22 29.62121 119.47601 38079 ft 460 kts 232°
2026-05-06 06:22 29.57828 119.42191 38079 ft 458 kts 234°
2026-05-06 06:23 29.53544 119.36732 38077 ft 458 kts 234°
2026-05-06 06:23 29.49269 119.31284 38073 ft 459 kts 234°
2026-05-06 06:24 29.44987 119.25837 38045 ft 459 kts 234°
2026-05-06 06:24 29.40697 119.20386 38041 ft 459 kts 233°
2026-05-06 06:25 29.36439 119.14986 38049 ft 458 kts 233°
2026-05-06 06:26 29.30008 119.06864 38042 ft 458 kts 233°
2026-05-06 06:26 29.25719 119.01459 38043 ft 458 kts 233°
2026-05-06 06:27 29.21410 118.96038 38047 ft 458 kts 233°
2026-05-06 06:27 29.17101 118.90623 38051 ft 458 kts 233°
2026-05-06 06:28 29.12825 118.85258 38049 ft 458 kts 233°
2026-05-06 06:28 29.08523 118.79867 38047 ft 458 kts 233°
2026-05-06 06:29 29.04250 118.74519 38036 ft 457 kts 233°
2026-05-06 06:29 28.99952 118.69147 38026 ft 457 kts 233°
2026-05-06 06:30 28.95665 118.63797 38035 ft 457 kts 233°
2026-05-06 06:30 28.91323 118.58384 38037 ft 457 kts 233°
2026-05-06 06:31 28.87013 118.53019 38043 ft 457 kts 233°
2026-05-06 06:31 28.82715 118.47676 38041 ft 457 kts 233°
2026-05-06 06:32 28.78402 118.42320 38041 ft 457 kts 233°
2026-05-06 06:32 28.74119 118.37009 38035 ft 457 kts 233°
2026-05-06 06:33 28.69820 118.31686 38034 ft 458 kts 232°
2026-05-06 06:33 28.65508 118.26354 38038 ft 458 kts 233°
2026-05-06 06:34 28.61196 118.21027 38042 ft 457 kts 233°
2026-05-06 06:34 28.56873 118.15695 38043 ft 457 kts 233°
2026-05-06 06:35 28.52574 118.10400 38034 ft 457 kts 232°
2026-05-06 06:35 28.48252 118.05083 38032 ft 457 kts 232°
2026-05-06 06:36 28.43934 117.99777 38034 ft 457 kts 232°
2026-05-06 06:36 28.39606 117.94537 38040 ft 457 kts 231°
2026-05-06 06:37 28.35191 117.89324 38036 ft 457 kts 231°
2026-05-06 06:37 28.30762 117.84098 38033 ft 458 kts 231°
2026-05-06 06:38 28.26321 117.78864 38028 ft 458 kts 231°
2026-05-06 06:38 28.21926 117.73690 38031 ft 458 kts 231°
2026-05-06 06:39 28.17514 117.68503 38065 ft 458 kts 231°
2026-05-06 06:39 28.13099 117.63317 38061 ft 459 kts 231°
2026-05-06 06:40 28.08661 117.58112 38062 ft 459 kts 231°
2026-05-06 06:40 28.04228 117.52919 38058 ft 458 kts 231°
2026-05-06 06:41 27.99788 117.47723 38052 ft 458 kts 231°
2026-05-06 06:41 27.95359 117.42547 38074 ft 459 kts 231°
2026-05-06 06:42 27.90937 117.37386 38077 ft 458 kts 231°
2026-05-06 06:42 27.86499 117.32213 38088 ft 459 kts 231°
2026-05-06 06:43 27.82055 117.27038 38092 ft 459 kts 231°
2026-05-06 06:43 27.77591 117.21847 38083 ft 459 kts 231°
2026-05-06 06:44 27.73141 117.16679 38065 ft 459 kts 231°
2026-05-06 06:44 27.68710 117.11539 38057 ft 459 kts 231°
2026-05-06 06:45 27.64277 117.06403 38072 ft 458 kts 231°
2026-05-06 06:45 27.59811 117.01237 38073 ft 458 kts 231°
2026-05-06 06:46 27.55385 116.96121 38072 ft 457 kts 231°
2026-05-06 06:46 27.50926 116.90962 38064 ft 457 kts 231°
2026-05-06 06:47 27.46528 116.85810 38048 ft 458 kts 231°
2026-05-06 06:47 27.42122 116.80656 38041 ft 457 kts 231°
2026-05-06 06:48 27.37701 116.75490 38028 ft 457 kts 231°
2026-05-06 06:48 27.33294 116.70348 38030 ft 457 kts 231°
2026-05-06 06:49 27.28875 116.65198 38039 ft 457 kts 231°
2026-05-06 06:49 27.24467 116.60067 38029 ft 457 kts 231°
2026-05-06 06:50 27.20060 116.54922 38033 ft 457 kts 232°
2026-05-06 06:50 27.15753 116.49699 38031 ft 457 kts 233°
2026-05-06 06:51 27.11420 116.44450 38051 ft 456 kts 233°
2026-05-06 06:51 27.07122 116.39250 38049 ft 456 kts 232°
2026-05-06 06:52 27.02797 116.34026 38066 ft 456 kts 232°
2026-05-06 06:52 26.98469 116.28803 38064 ft 457 kts 232°
2026-05-06 06:53 26.94123 116.23566 38061 ft 457 kts 232°
2026-05-06 06:53 26.89806 116.18340 38062 ft 458 kts 232°
2026-05-06 06:54 26.85508 116.13104 38059 ft 457 kts 232°
2026-05-06 06:54 26.81203 116.07868 38051 ft 456 kts 233°
2026-05-06 06:55 26.76935 116.02682 38044 ft 456 kts 233°
2026-05-06 06:55 26.72624 115.97450 38043 ft 457 kts 233°
2026-05-06 06:56 26.68312 115.92224 38050 ft 457 kts 233°
2026-05-06 06:56 26.63998 115.87003 38040 ft 457 kts 233°
2026-05-06 06:57 26.59675 115.81776 38038 ft 457 kts 233°
2026-05-06 06:57 26.55373 115.76582 38039 ft 457 kts 233°
2026-05-06 06:58 26.51045 115.71362 38036 ft 457 kts 233°
2026-05-06 06:58 26.46733 115.66167 38041 ft 458 kts 233°
2026-05-06 06:59 26.42395 115.60947 38041 ft 458 kts 233°
2026-05-06 06:59 26.38065 115.55743 38042 ft 458 kts 233°
2026-05-06 07:00 26.33690 115.50492 38051 ft 458 kts 233°
2026-05-06 07:00 26.29338 115.45274 38048 ft 459 kts 233°
2026-05-06 07:01 26.24977 115.40052 38043 ft 459 kts 233°
2026-05-06 07:01 26.20647 115.34874 38033 ft 459 kts 232°
2026-05-06 07:02 26.16274 115.29649 38024 ft 459 kts 233°
2026-05-06 07:02 26.11918 115.24451 38020 ft 459 kts 232°
2026-05-06 07:03 26.07544 115.19238 38024 ft 459 kts 232°
2026-05-06 07:03 26.03184 115.14048 38025 ft 460 kts 233°
2026-05-06 07:04 25.98808 115.08844 38031 ft 461 kts 232°
2026-05-06 07:04 25.94432 115.03648 38048 ft 461 kts 233°
2026-05-06 07:05 25.90038 114.98435 38060 ft 461 kts 233°
2026-05-06 07:05 25.85571 114.93269 38060 ft 464 kts 229°
2026-05-06 07:06 25.80311 114.88923 38056 ft 477 kts 216°
2026-05-06 07:06 25.74135 114.85919 38048 ft 492 kts 203°
2026-05-06 07:07 25.67410 114.84161 38037 ft 497 kts 198°
2026-05-06 07:07 25.60656 114.82491 38026 ft 497 kts 198°
2026-05-06 07:08 25.53878 114.80814 38028 ft 496 kts 198°
2026-05-06 07:08 25.47141 114.79150 38026 ft 496 kts 198°
2026-05-06 07:09 25.40410 114.77486 38025 ft 496 kts 198°
2026-05-06 07:09 25.33597 114.75805 38024 ft 496 kts 198°
2026-05-06 07:10 25.26852 114.74142 38027 ft 496 kts 198°
2026-05-06 07:10 25.20118 114.72483 38029 ft 496 kts 198°
2026-05-06 07:11 25.13401 114.70829 38042 ft 496 kts 198°
2026-05-06 07:11 25.06650 114.69170 38054 ft 496 kts 198°
2026-05-06 07:12 24.99919 114.67516 38061 ft 496 kts 198°
2026-05-06 07:12 24.93157 114.65857 38060 ft 496 kts 198°
2026-05-06 07:13 24.86401 114.64200 38058 ft 495 kts 198°
2026-05-06 07:13 24.79675 114.62547 38051 ft 495 kts 198°
2026-05-06 07:14 24.72927 114.60847 38048 ft 493 kts 201°
2026-05-06 07:14 24.66663 114.58023 38061 ft 482 kts 214°
2026-05-06 07:15 24.60837 114.54353 38060 ft 482 kts 216°
2026-05-06 07:15 24.55017 114.50683 38081 ft 481 kts 216°
2026-05-06 07:16 24.49218 114.47028 38082 ft 482 kts 216°
2026-05-06 07:16 24.43370 114.43346 38083 ft 483 kts 215°
2026-05-06 07:17 24.37553 114.39693 38066 ft 483 kts 215°
2026-05-06 07:17 24.31701 114.36025 38075 ft 483 kts 215°
2026-05-06 07:18 24.25868 114.32372 38079 ft 483 kts 215°
2026-05-06 07:18 24.20063 114.28740 38085 ft 482 kts 215°
2026-05-06 07:19 24.14217 114.25086 38080 ft 483 kts 215°
2026-05-06 07:19 24.08361 114.21386 38083 ft 481 kts 218°
2026-05-06 07:20 24.02993 114.17105 38086 ft 478 kts 221°
2026-05-06 07:20 23.97672 114.12767 38094 ft 479 kts 221°
2026-05-06 07:21 23.92334 114.08423 38089 ft 478 kts 221°
2026-05-06 07:21 23.87001 114.04089 38083 ft 478 kts 221°
2026-05-06 07:22 23.81646 113.99743 38076 ft 478 kts 221°
2026-05-06 07:22 23.76406 113.95317 38059 ft 475 kts 227°
2026-05-06 07:23 23.72095 113.89966 38049 ft 466 kts 240°
2026-05-06 07:23 23.69061 113.83752 37578 ft 465 kts 252°
2026-05-06 07:23 23.68060 113.80418 37051 ft 461 kts 258°
2026-05-06 07:24 23.67435 113.77045 36538 ft 450 kts 264°
2026-05-06 07:24 23.67178 113.73737 36025 ft 438 kts 270°
2026-05-06 07:24 23.67258 113.70467 35438 ft 422 kts 276°
2026-05-06 07:24 23.67764 113.67397 34937 ft 406 kts 286°
2026-05-06 07:25 23.68752 113.64575 34422 ft 393 kts 296°
2026-05-06 07:25 23.70214 113.62093 33891 ft 388 kts 307°
2026-05-06 07:25 23.72112 113.59972 33331 ft 393 kts 316°
2026-05-06 07:25 23.74179 113.58058 32778 ft 384 kts 317°
2026-05-06 07:26 23.76177 113.56213 32232 ft 375 kts 316°
2026-05-06 07:26 23.78145 113.54394 31687 ft 367 kts 317°
2026-05-06 07:26 23.80024 113.52551 31139 ft 357 kts 308°
2026-05-06 07:26 23.81201 113.50251 30608 ft 345 kts 284°
2026-05-06 07:27 23.81338 113.47663 30043 ft 340 kts 262°
2026-05-06 07:27 23.80601 113.45248 29488 ft 339 kts 243°
2026-05-06 07:27 23.79127 113.43285 28939 ft 341 kts 223°
2026-05-06 07:27 23.77110 113.41922 28389 ft 343 kts 210°
2026-05-06 07:28 23.74916 113.40868 27824 ft 342 kts 205°
2026-05-06 07:28 23.72662 113.40054 27276 ft 342 kts 199°
2026-05-06 07:28 23.68102 113.38803 26186 ft 337 kts 198°
2026-05-06 07:29 23.65823 113.38178 25635 ft 334 kts 198°
2026-05-06 07:29 23.63563 113.37562 25082 ft 332 kts 198°
2026-05-06 07:29 23.61332 113.36957 24530 ft 329 kts 198°
2026-05-06 07:29 23.59135 113.36363 23985 ft 327 kts 198°
2026-05-06 07:30 23.56912 113.35762 23305 ft 329 kts 198°
2026-05-06 07:30 23.54662 113.35152 22433 ft 335 kts 197°
2026-05-06 07:30 23.52401 113.34540 21570 ft 339 kts 197°
2026-05-06 07:30 23.50197 113.33703 20703 ft 337 kts 213°
2026-05-06 07:31 23.48486 113.32045 19841 ft 333 kts 237°
2026-05-06 07:31 23.47605 113.29765 18979 ft 331 kts 261°
2026-05-06 07:31 23.47703 113.27283 18034 ft 334 kts 282°
2026-05-06 07:31 23.48299 113.24844 17040 ft 338 kts 283°
2026-05-06 07:32 23.48908 113.22360 16049 ft 339 kts 283°
2026-05-06 07:32 23.49499 113.19916 15079 ft 339 kts 283°
2026-05-06 07:32 23.50089 113.17443 14090 ft 338 kts 284°
2026-05-06 07:32 23.50665 113.14976 13108 ft 335 kts 283°
2026-05-06 07:33 23.51229 113.12542 12129 ft 332 kts 283°
2026-05-06 07:33 23.51798 113.10134 11149 ft 329 kts 283°
2026-05-06 07:33 23.52387 113.07764 10171 ft 326 kts 286°
2026-05-06 07:33 23.53129 113.05447 9189 ft 323 kts 287°
2026-05-06 07:34 23.53843 113.03166 8216 ft 319 kts 287°
2026-05-06 07:34 23.54669 113.00971 7248 ft 319 kts 299°
2026-05-06 07:34 23.56242 112.99295 6557 ft 312 kts 328°
2026-05-06 07:34 23.58259 112.98656 6167 ft 300 kts 356°
2026-05-06 07:35 23.60283 112.98981 5777 ft 288 kts 13°
2026-05-06 07:35 23.62174 112.99509 5395 ft 277 kts 14°
2026-05-06 07:35 23.64029 113.00029 5007 ft 266 kts 14°
2026-05-06 07:35 23.65802 113.00519 4618 ft 258 kts 14°
2026-05-06 07:36 23.67507 113.00978 4232 ft 251 kts 14°
2026-05-06 07:36 23.69189 113.01420 3841 ft 245 kts 14°
2026-05-06 07:36 23.70842 113.01842 3445 ft 240 kts 14°
2026-05-06 07:36 23.72440 113.02290 3074 ft 233 kts 24°
2026-05-06 07:37 23.73593 113.03383 2955 ft 214 kts 64°
2026-05-06 07:37 23.74219 113.04881 2956 ft 217 kts 71°
2026-05-06 07:37 23.74408 113.06478 2951 ft 213 kts 101°
2026-05-06 07:37 23.74127 113.08069 2955 ft 214 kts 103°
2026-05-06 07:38 23.73842 113.09687 2952 ft 215 kts 103°
2026-05-06 07:38 23.73566 113.11275 2948 ft 215 kts 103°
2026-05-06 07:38 23.73287 113.12878 2946 ft 214 kts 103°
2026-05-06 07:38 23.73009 113.14484 2945 ft 213 kts 103°
2026-05-06 07:39 23.72751 113.15989 2966 ft 191 kts 103°
2026-05-06 07:39 23.72519 113.17345 2979 ft 171 kts 103°
2026-05-06 07:39 23.72312 113.18561 2975 ft 153 kts 103°
2026-05-06 07:39 23.72129 113.19634 2995 ft 137 kts 103°
2026-05-06 07:40 23.71950 113.20664 2937 ft 137 kts 103°
2026-05-06 07:40 23.71774 113.21681 2880 ft 137 kts 103°
2026-05-06 07:40 23.71599 113.22690 2806 ft 133 kts 103°
2026-05-06 07:40 23.71423 113.23704 2825 ft 147 kts 103°
2026-05-06 07:41 23.71182 113.25035 2776 ft 202 kts 103°
2026-05-06 07:41 23.70915 113.26572 2801 ft 209 kts 102°
2026-05-06 07:41 23.70644 113.28149 2809 ft 210 kts 102°
2026-05-06 07:41 23.70375 113.29720 2800 ft 212 kts 102°
2026-05-06 07:42 23.70103 113.31309 2814 ft 213 kts 102°
2026-05-06 07:42 23.69830 113.32899 2820 ft 214 kts 102°
2026-05-06 07:42 23.69558 113.34482 2823 ft 214 kts 102°
2026-05-06 07:42 23.69252 113.36075 2829 ft 213 kts 110°
2026-05-06 07:43 23.68494 113.37447 2832 ft 211 kts 136°
2026-05-06 07:43 23.67238 113.38198 2831 ft 209 kts 173°
2026-05-06 07:43 23.65798 113.38025 2830 ft 209 kts 190°
2026-05-06 07:43 23.64347 113.37726 2831 ft 211 kts 190°
2026-05-06 07:44 23.62915 113.37370 2831 ft 211 kts 192°
2026-05-06 07:44 23.61485 113.36997 2831 ft 211 kts 192°
2026-05-06 07:44 23.60044 113.36613 2830 ft 210 kts 193°
2026-05-06 07:44 23.58631 113.36231 2838 ft 205 kts 193°
2026-05-06 07:45 23.57271 113.35864 2844 ft 197 kts 193°
2026-05-06 07:45 23.55980 113.35513 2843 ft 179 kts 192°
2026-05-06 07:45 23.54855 113.35207 2780 ft 156 kts 192°
2026-05-06 07:45 23.53843 113.34934 2575 ft 145 kts 192°
2026-05-06 07:46 23.52893 113.34677 2419 ft 135 kts 192°
2026-05-06 07:46 23.51952 113.34423 2227 ft 140 kts 192°
2026-05-06 07:46 23.51010 113.34168 2057 ft 136 kts 192°
2026-05-06 07:46 23.50083 113.33917 1888 ft 138 kts 192°
2026-05-06 07:47 23.49151 113.33657 1684 ft 139 kts 192°
2026-05-06 07:47 23.48217 113.33396 1472 ft 137 kts 192°
2026-05-06 07:47 23.47296 113.33135 1278 ft 136 kts 192°
2026-05-06 07:47 23.46373 113.32879 1102 ft 136 kts 192°
2026-05-06 07:48 23.45447 113.32625 960 ft 136 kts 191°
2026-05-06 07:48 23.44516 113.32375 816 ft 137 kts 192°
2026-05-06 07:48 23.43591 113.32129 645 ft 138 kts 192°
2026-05-06 07:48 23.42650 113.31880 451 ft 137 kts 191°
2026-05-06 07:49 23.41720 113.31634 280 ft 135 kts 191°
2026-05-06 07:49 23.40811 113.31396 146 ft 133 kts 190°
2026-05-06 07:49 23.39915 113.31165 95 ft 133 kts 190°
2026-05-06 07:49 23.39066 113.30943 54 ft 109 kts 191°
2026-05-06 07:50 23.38728 113.30840 54 ft 9 kts 218°
2026-05-06 07:50 23.38653 113.30778 54 ft 15 kts 214°
2026-05-06 07:50 23.38556 113.30696 54 ft 19 kts 225°
2026-05-06 07:50 23.38530 113.30585 53 ft 16 kts 265°
2026-05-06 07:51 23.38541 113.30495 53 ft 12 kts 283°
2026-05-06 07:51 23.38565 113.30383 53 ft 17 kts 283°
2026-05-06 07:51 23.38599 113.30290 53 ft 6 kts 297°
2026-05-06 07:51 23.38625 113.30230 53 ft 8 kts 282°
2026-05-06 07:52 23.38595 113.30154 53 ft 13 kts 261°
2026-05-06 07:52 23.38619 113.30099 53 ft 6 kts 293°
2026-05-06 07:52 23.38596 113.30045 53 ft 10 kts 233°
2026-05-06 07:52 23.38577 113.30019 53 ft 2 kts 231°
2026-05-06 07:53 23.38574 113.30014 53 ft 0 kts 231°